OpenBCM V1.08-5-g2f4a (Linux)

Packet Radio Mailbox

IZ3LSV

[San Dona' di P. JN]

 Login: GUEST





  
CX2SA  > KEP      25.04.20 01:14l 87 Lines 3611 Bytes #999 (0) @ ARL
BID : ARLK033
Read: GUEST
Subj: ARLK033 Keplerian data
Path: IZ3LSV<I0OJJ<I0OJJ<N6RME<CX2SA
Sent: 200424/2238Z @:CX2SA.SAL.URY.SOAM #:29694 [Salto] FBB7.00e $:ARLK033
From: CX2SA@CX2SA.SAL.URY.SOAM
To  : KEP@ARL


ZCZC SK33
QST de W1AW
Keplerian Bulletin 33  ARLK033
>From ARRL Headquarters
Newington, CT  April 24, 2020
To all radio amateurs

SB KEP ARL ARLK033
ARLK033 Keplerian data

Special thanks to AMSAT-NA (AMSAT.ORG) for the following Keplerian
data.

Decode 2-line elsets with the following key:
1 AAAAAU 00  0  0 BBBBB.BBBBBBBB  .CCCCCCCC  00000-0  00000-0 0  DDDZ
2 AAAAA EEE.EEEE FFF.FFFF GGGGGGG HHH.HHHH III.IIII JJ.JJJJJJJJKKKKKZ
KEY: A-CATALOGNUM B-EPOCHTIME C-DECAY D-ELSETNUM E-INCLINATION F-RAAN
G-ECCENTRICITY H-ARGPERIGEE I-MNANOM J-MNMOTION K-ORBITNUM Z-CHECKSUM

0 AO-07
1 7530U 74089B   20115.46518486 -.00000052 +00000-0 -39714-4 0  9991
2 7530 101.7953 085.5182 0012557 107.1810 006.9393 12.53643091079224
0 FO-29
1 24278U 96046B   20115.33723351 -.00000057 +00000-0 -23067-4 0  9990
2 24278 098.5760 232.2772 0350903 154.8513 207.0183 13.53097598169560
0 ISS
1 25544U 98067A   20115.71753472  .00001444  00000-0  34003-4 0  9992
2 25544  51.6438 253.1024 0001512 182.7404  30.9956 15.49310699223726
0 SO-50
1 27607U 02058C   20115.42219824  .00000015  00000-0  22842-4 0  9996
2 27607  64.5549 179.5654 0054806 191.5930 168.3915 14.75628019932881
0 CO-55
1 27844U 03031E   20115.47268787 +.00000041 +00000-0 +38004-4 0  9994
2 27844 098.6836 124.0192 0009304 205.3548 154.7174 14.22233185872422
0 RS-22
1 27939U 03042A   20115.49753528  .00000119  00000-0  30011-4 0  9991
2 27939  98.0803 251.0596 0013548 159.1185 201.0583 14.66853371886105
0 RS-30
1 32953U 08025A   20115.47291673  .00000037  00000-0  19437-3 0  9992
2 32953  82.5005 311.4849 0019253 169.3292 190.8202 12.43095183540924
0 KKS-1
1 33499U 09002H   20115.53945039 +.00000098 +00000-0 +22399-4 0  9992
2 33499 098.3237 328.7542 0007989 301.6942 058.3487 14.75523316604632
0 AO-71
1 37854U 11061E   20115.39498777 +.00001152 +00000-0 +65674-4 0  9990
2 37854 101.7015 178.7665 0158659 222.4667 136.4182 15.07150300463333
0 AO-73
1 39444U 13066AE  20115.48799262 +.00000245 +00000-0 +36153-4 0  9999
2 39444 097.5598 118.7147 0059619 087.4522 273.3515 14.82102112345376
0 UKUBE 1
1 40074U 14037F   20115.50245884  .00000346  00000-0  48531-4 0  9993
2 40074  98.4550 300.6276 0003629 307.3234  52.7655 14.84238341313751
0 XW-2A
1 40903U 15049E   20115.48981451  .00002623  00000-0  61470-4 0  9999
2 40903  97.2939 164.3916 0014994  97.8433  20.4416 15.42908603258154
0 XW-2F
1 40910U 15049M   20115.51616897  .00000962  00000-0  50785-4 0  9991
2 40910  97.4684 119.8543 0014384 182.1009 332.7583 15.17848161254156
0 XW-2B
1 40911U 15049N   20115.51563704  .00000560  00000-0  32437-4 0  9998
2 40911  97.4759 118.0539 0013378 192.7825 324.0320 15.16168489253992
0 IO-86
1 40931U 15052B   20115.38306544  .00000563  00000-0 -10696-4 0  9993
2 40931   5.9989   0.9776 0012971 234.3589 125.5398 14.76631376247259
0 CAS-4B
1 42759U 17034B   20115.50028755  .00000347  00000-0  34584-4 0  9995
2 42759  43.0203 323.4836 0010733  44.2147  35.8714 15.09797866157814
0 CAS-4A
1 42761U 17034D   20115.51449400  .00000303  00000-0  31852-4 0  9990
2 42761  43.0201 322.7412 0010825  46.0119  39.1996 15.09875946157813
0 AO-91
1 43017U 17073E   20115.32961287  .00000343  00000-0  32629-4 0  9996
2 43017  97.7250  29.6513 0255997 226.4965 131.4717 14.78889084131167
0 AO-92
1 43137U 18004AC  20115.44958384  .00001049  00000-0  46246-4 0  9995
2 43137  97.4488 186.9694 0007709 240.0401 120.0071 15.24023316126813

Keplerian bulletins are transmitted twice weekly from W1AW.  The
next scheduled transmission of these data will be Tuesday, April 28,
2020, at 2230z on Baudot and BPSK31.
NNNN



Read previous mail | Read next mail


 20.08.2025 02:19:12lGo back Go up